TimeWET,TemperatureF,Dew PointF,Humidity,Sea Level PressureIn,VisibilityMPH,Wind Direction,Wind SpeedMPH,Gust SpeedMPH,PrecipitationIn,Events,Conditions,WindDirDegrees,DateUTC
12:00 AM,51,41,59,30.01,6,NE,8.1,,,,Partly Cloudy,50,2014-03-12 00:00:00
12:00 AM,51.8,41.0,67,29.98,6.2,ENE,8.1,-,N/A,,Mostly Cloudy,60,2014-03-12 00:00:00
1:00 AM,51.8,41.0,67,29.95,-9999.0,NE,8.1,-,N/A,,Clear,40,2014-03-12 01:00:00
2:00 AM,50.0,41.0,71,29.95,-9999.0,North,5.8,-,N/A,,Clear,10,2014-03-12 02:00:00
3:00 AM,49,41,66,29.95,6,ENE,9.2,,,,Partly Cloudy,60,2014-03-12 03:00:00
3:00 AM,50.0,41.0,71,29.92,-9999.0,ENE,10.4,-,N/A,,Clear,60,2014-03-12 03:00:00
4:00 AM,48.2,42.8,82,29.98,-9999.0,North,-9999.0,-,N/A,,Mostly Cloudy,0,2014-03-12 04:00:00
5:00 AM,46.4,39.2,76,29.95,6.2,NE,6.9,-,N/A,,Mostly Cloudy,40,2014-03-12 05:00:00
6:00 AM,48,41,70,30.02,6,ENE,11.5,,,,Partly Cloudy,60,2014-03-12 06:00:00
6:00 AM,48.2,41.0,76,29.98,6.2,ENE,11.5,-,N/A,,Mostly Cloudy,60,2014-03-12 06:00:00
7:00 AM,48.2,41.0,76,30.01,6.2,ENE,12.7,-,N/A,,Mostly Cloudy,60,2014-03-12 07:00:00
8:00 AM,51.8,42.8,71,30.01,6.2,NE,11.5,-,N/A,,Mostly Cloudy,50,2014-03-12 08:00:00
9:00 AM,55,44,56,30.04,6,ENE,12.7,,,,Scattered Clouds,60,2014-03-12 09:00:00
9:00 AM,55.4,44.6,67,30.04,6.2,ENE,13.8,-,N/A,,Scattered Clouds,60,2014-03-12 09:00:00
10:00 AM,57.2,42.8,59,30.04,6.2,ENE,18.4,-,N/A,,Scattered Clouds,60,2014-03-12 10:00:00
11:00 AM,60.8,44.6,55,30.04,6.2,ENE,18.4,-,N/A,,Scattered Clouds,60,2014-03-12 11:00:00
12:00 PM,61,45,44,30.02,6,NE,17.3,,,,Partly Cloudy,50,2014-03-12 12:00:00
12:00 PM,60.8,44.6,55,30.04,6.2,NE,18.4,-,N/A,,Scattered Clouds,40,2014-03-12 12:00:00
1:00 PM,62.6,44.6,52,30.01,6.2,NE,16.1,-,N/A,,Scattered Clouds,40,2014-03-12 13:00:00
2:00 PM,62.6,46.4,55,29.98,6.2,NE,19.6,-,N/A,,Scattered Clouds,50,2014-03-12 14:00:00
3:00 PM,62,44,41,29.99,6,NE,17.3,,,,Scattered Clouds,50,2014-03-12 15:00:00
3:00 PM,62.6,42.8,48,29.98,6.2,NE,17.3,-,N/A,,Scattered Clouds,50,2014-03-12 15:00:00
4:00 PM,60.8,42.8,52,29.98,6.2,NE,15.0,-,N/A,,Scattered Clouds,50,2014-03-12 16:00:00
5:00 PM,59.0,41.0,51,30.01,6.2,NE,13.8,-,N/A,,Scattered Clouds,40,2014-03-12 17:00:00
6:00 PM,53,48,76,30.58,12,NE,13.8,,,,Partly Cloudy,40,2014-03-12 18:00:00
6:00 PM,57.2,42.8,59,30.01,6.2,NE,15.0,-,N/A,,Scattered Clouds,40,2014-03-12 18:00:00
7:00 PM,55.4,42.8,63,30.04,6.2,NE,11.5,-,N/A,,Scattered Clouds,40,2014-03-12 19:00:00
8:00 PM,51.8,50.0,94,30.60,6.2,NE,11.5,-,N/A,,Scattered Clouds,50,2014-03-12 20:00:00
9:00 PM,53,42,58,30.10,22,ESE,11.5,,,,Partly Cloudy,110,2014-03-12 21:00:00
9:00 PM,53.6,42.8,67,30.06,6.2,ENE,12.7,-,N/A,,Scattered Clouds,60,2014-03-12 21:00:00
10:00 PM,50.0,48.2,94,30.09,6.2,NNE,5.8,-,N/A,,Scattered Clouds,20,2014-03-12 22:00:00
11:00 PM,50.0,48.2,94,30.63,6.2,North,3.5,-,N/A,,Scattered Clouds,10,2014-03-12 23:00:00